Miscellaneous Local Product
Issued by NWS Hastings, NE

Home | Current Version | Previous Version | Graphics & Text | Print | Product List | Glossary On
Versions: 1 2 3 4 5 6 7 8 9 10 11 12 13 14 15 16 17 18 19 20 21 22 23 24 25 26 27 28 29 30 31 32 33 34 35 36 37 38 39 40 41 42 43 44 45 46 47 48 49 50
000
AXUS43 KGID 220002
MISGRI

GID CWA HOURLY WEATHER ROUNDUP
NATIONAL WEATHER SERVICE HASTINGS NE
700 PM CDT SUN SEP 21 2014

NOTE: "FAIR" INDICATES FEW OR NO CLOUDS BELOW 12,000 FEET WITH NO
SIGNIFICANT WEATHER AND/OR OBSTRUCTIONS TO VISIBILITY.

...SOUTH CENTRAL NEBRASKA...

CITY           SKY/WX    TMP DP  RH WIND       PRES   REMARKS
GRAND ISLAND   CLEAR     69  45  41 N6        30.25S
HASTINGS       CLEAR     69  43  38 NE6       30.25S
KEARNEY        CLEAR     68  45  42 N6        30.26S
ORD            CLEAR     68  44  42 NE5       30.25R
YORK           CLEAR     64  50  59 N7        30.24S
AURORA         CLEAR     67  46  46 N5        30.25R
LEXINGTON      CLEAR     69  41  36 NE6       30.26S
HOLDREGE       CLEAR     69  41  36 CALM      30.26R
HEBRON         CLEAR     71  40  33 N5        30.23S

...NEBRASKA PANHANDLE...

CITY           SKY/WX    TMP DP  RH WIND       PRES   REMARKS
CHADRON        PTCLDY    71  41  33 E8        30.24F
ALLIANCE       CLOUDY    71  40  32 S8        30.28R
SCOTTSBLUFF    MOCLDY    71  42  35 E14       30.27S
SIDNEY         CLOUDY    71  41  33 SE12      30.31S

...WESTERN AND NORTH CENTRAL NEBRASKA...

CITY           SKY/WX    TMP DP  RH WIND       PRES   REMARKS
VALENTINE      CLEAR     71  37  28 NE6       30.27S
AINSWORTH      CLEAR     66  44  44 NE6       30.28S
ONEILL         CLEAR     66  48  52 N5        30.26S
BROKEN BOW     CLEAR     72  38  29 NE6       30.26S
IMPERIAL       MOCLDY    73  40  30 S6        30.28S
NORTH PLATTE   CLEAR     69  42  37 NE6       30.27S
MCCOOK         CLEAR     72  42  34 E8        30.27R

...EASTERN NEBRASKA...

CITY           SKY/WX    TMP DP  RH WIND       PRES   REMARKS
NORFOLK        CLEAR     67  45  45 N10       30.24R
SO SIOUX CITY  CLEAR     68  48  48 N7        30.22R
TEKAMAH        PTCLDY    69  47  45 N9        30.21S
COLUMBUS       CLEAR     66  46  48 NE6       30.25R
ALBION         CLEAR     67  44  43 N6        30.25S
OMAHA EPPLEY   PTCLDY    67  49  52 N9        30.21S
OFFUTT AFB     CLEAR     68  49  50 N9        30.20S
MILLARD        CLEAR     69  48  47 N6        30.21S
LINCOLN        CLEAR     67  48  50 NE10      30.23R
NEBRASKA CITY    N/A     67  40  38 N5        30.21S
BEATRICE       CLEAR     69  46  43 N8        30.22R
FALLS CITY     CLEAR     69  48  47 N9        30.19R

...NORTHERN KANSAS...

CITY           SKY/WX    TMP DP  RH WIND       PRES   REMARKS
GOODLAND       MOCLDY    69  45  41 SE5       30.29S
HILL CITY      CLEAR     75  39  27 NE9       30.25S
NORTON         CLEAR     73  32  21 NE8       30.25
SMITH CENTER   CLEAR     73  39  29 N7        30.25R
BELOIT         CLEAR     73  39  29 N7        30.21S
HAYS           CLEAR     73  37  27 E7        30.24R
RUSSELL        CLEAR     73  39  29 NE7       30.22R
CONCORDIA      CLEAR     71  45  39 N7        30.22S
SALINA         CLEAR     74  43  32 N10       30.21R
TOPEKA         CLEAR     71  49  45 N7        30.19R



USA.gov is the U.S. government's official web portal to all federal, state and local government web resources and services.